sat.trackr.live / text

‹ back to catalog

STARLINK-32385

NORAD 61068 · 2024-164U

PAYLOAD ACTIVE UNKNOWN

§ Identity

Operator
Country
US
Launch date
2024-09-13
Launch site
AFWTR
Launch vehicle
Mass (kg)
RCS (m²)

Purposes: comms

External: N2YO · Heavens-Above · Gunter

§ Orbital elements

Epoch: 2026-09-21T07:04:58.645344Z

Period
94.01 min
Inclination
53.1608°
Eccentricity
0.0001360
Mean motion
15.31707421 rev/d
Perigee alt
469.8 km
Apogee alt
471.6 km
Semi-major
6,848.9 km
B*
1.6867e-5
RAAN
261.2750°
Arg perigee
84.7793°
Mean anomaly
275.3364°
Rev number
11,344

§ Raw data

STARLINK-323851 61068U 24164U   26264.29512321  .00000158  00000+0  16867-4 0  99982 61068  53.1608 261.2750 0001360  84.7793 275.3364 15.31707421113441

JSON: /api/v1/satellites/61068 · /tle

For live sub-satellite position, see the globe view (requires WebGL).

§ Visibility from observer

Set your observer location to see the next 7 days of passes ≥ 10°. The values pass through the URL so the page stays shareable.

No JS? Fill the form by hand. The geolocation button needs JavaScript.